Date String (YYYY-MM-DD hh:mm:ss) UTC,Instrument flags,Ambient pressure (hPa),Sample flow (lpm),Bypass flow (lpm),Sample temperature (°C),Ambient temperature (°C),ASC tube jacket temperature (°C),LED temperature (°C),Box temperature (°C),Sample RH (%),Span deviation,Mass concentration (μg/m³),Mass concentration (μg/m³),Mass concentration (μg/m³)
DateTimeUTC,F1_M11,P_M11,Q1_M11,Q2_M11,T1_M11,T2_M11,T3_M11,T4_M11,T5_M11,U1_M11,ZSPAN_M11,X0_M11,X2_M11,X1_M11
2021-12-11 21:00:00,,0820.0,5.01,0.00,23.0,22.1,00.0,32.0,24.7,05.7,0000.0,0007.35,0001.33,0000.75
2021-12-11 21:01:00,,0819.9,5.00,0.00,23.0,22.1,00.0,32.0,24.7,05.6,0000.0,0007.63,0001.33,0000.75
2021-12-11 21:02:00,,0820.0,5.00,0.00,23.0,22.1,00.0,32.0,24.7,05.6,0000.0,0007.60,0001.30,0000.73
2021-12-11 21:03:00,,0819.9,5.02,0.00,22.9,22.1,00.0,32.0,24.7,05.7,0000.0,0007.15,0001.20,0000.72
2021-12-11 21:04:00,,0819.8,4.99,0.00,22.9,22.1,00.0,32.0,24.7,05.7,0000.0,0004.52,0001.12,0000.70
2021-12-11 21:05:00,,0819.8,5.01,0.00,22.9,22.0,00.0,32.0,24.7,05.7,0000.0,0004.25,0001.12,0000.71
2021-12-11 21:06:00,,0819.5,5.00,0.00,22.9,22.0,00.0,32.0,24.7,05.7,0000.0,0004.66,0001.12,0000.72
2021-12-11 21:07:00,,0819.6,5.00,0.00,22.9,22.0,00.0,32.0,24.7,05.7,0000.0,0005.51,0001.15,0000.72
2021-12-11 21:08:00,,0819.8,5.00,0.00,22.9,21.9,00.0,32.0,24.6,05.8,0000.0,0005.62,0001.17,0000.74
2021-12-11 21:09:00,,0819.9,5.01,0.00,22.9,21.9,00.0,31.9,24.6,05.8,0000.0,0005.66,0001.19,0000.75
2021-12-11 21:10:00,,0820.0,5.00,0.00,22.8,21.8,00.0,31.9,24.6,05.7,0000.0,0005.62,0001.16,0000.74
2021-12-11 21:11:00,,0820.0,4.98,0.00,22.8,21.8,00.0,31.9,24.6,05.8,0000.0,0005.39,0001.13,0000.74
2021-12-11 21:12:00,,0820.0,5.00,0.00,22.8,21.8,00.0,31.9,24.5,05.8,0000.0,0004.89,0001.15,0000.74
2021-12-11 21:13:00,,0819.9,5.00,0.00,22.8,21.7,00.0,31.9,24.5,05.7,0000.0,0005.06,0001.22,0000.76
2021-12-11 21:14:00,,0820.1,5.01,0.00,22.8,21.7,00.0,31.9,24.5,05.7,0000.0,0005.19,0001.27,0000.78
2021-12-11 21:15:00,,0820.2,4.99,0.00,22.8,21.7,00.0,31.8,24.4,05.7,0000.0,0005.25,0001.30,0000.78
2021-12-11 21:16:00,,0820.1,5.00,0.00,22.8,21.7,00.0,31.8,24.4,05.7,0000.0,0004.93,0001.30,0000.79
2021-12-11 21:17:00,,0820.2,4.99,0.00,22.7,21.7,00.0,31.8,24.4,05.7,0000.0,0005.29,0001.34,0000.79
2021-12-11 21:18:00,,0820.2,5.00,0.00,22.7,21.7,00.0,31.8,24.4,05.7,0000.0,0004.57,0001.32,0000.79
2021-12-11 21:19:00,,0820.2,5.01,0.00,22.7,21.6,00.0,31.8,24.4,05.7,0000.0,0004.33,0001.34,0000.79
2021-12-11 21:20:00,,0820.4,5.00,0.00,22.7,21.6,00.0,31.8,24.3,05.7,0000.0,0004.50,0001.38,0000.80
2021-12-11 21:21:00,,0820.4,5.01,0.00,22.6,21.6,00.0,31.7,24.3,05.7,0000.0,0004.72,0001.45,0000.81
2021-12-11 21:22:00,,0820.4,5.00,0.00,22.6,21.6,00.0,31.7,24.3,05.7,0000.0,0004.86,0001.49,0000.82
2021-12-11 21:23:00,,0820.6,5.00,0.00,22.6,21.5,00.0,31.7,24.3,05.7,0000.0,0005.23,0001.47,0000.82
2021-12-11 21:24:00,,0820.7,4.99,0.00,22.6,21.5,00.0,31.7,24.2,05.7,0000.0,0005.13,0001.42,0000.82
2021-12-11 21:25:00,,0820.6,5.02,0.00,22.5,21.5,00.0,31.7,24.2,05.7,0000.0,0005.72,0001.38,0000.82
2021-12-11 21:26:00,,0820.6,4.99,0.00,22.5,21.5,00.0,31.7,24.2,05.7,0000.0,0005.64,0001.37,0000.82
2021-12-11 21:27:00,,0820.6,5.01,0.00,22.5,21.5,00.0,31.6,24.2,05.7,0000.0,0005.55,0001.38,0000.82
2021-12-11 21:28:00,,0820.6,5.01,0.00,22.5,21.4,00.0,31.6,24.1,05.8,0000.0,0003.89,0001.31,0000.81
2021-12-11 21:29:00,,0820.5,5.00,0.00,22.5,21.4,00.0,31.6,24.0,05.8,0000.0,0003.66,0001.31,0000.81
2021-12-11 21:30:00,,0820.5,5.01,0.00,22.4,21.4,00.0,31.6,24.0,05.8,0000.0,0003.61,0001.31,0000.83
2021-12-11 21:31:00,,0820.5,5.01,0.00,22.4,21.4,00.0,31.6,24.0,05.8,0000.0,0004.69,0001.31,0000.83
2021-12-11 21:32:00,,0820.6,5.00,0.00,22.4,21.4,00.0,31.5,24.0,05.8,0000.0,0005.88,0001.26,0000.82
2021-12-11 21:33:00,,0820.4,4.99,0.00,22.4,21.3,00.0,31.5,23.9,05.8,0000.0,0005.98,0001.25,0000.82
2021-12-11 21:34:00,,0820.2,4.99,0.00,22.3,21.3,00.0,31.5,24.0,05.8,0000.0,0005.55,0001.24,0000.82
2021-12-11 21:35:00,,0819.9,5.01,0.00,22.3,21.2,00.0,31.5,24.0,05.8,0000.0,0005.78,0001.29,0000.83
2021-12-11 21:36:00,,0820.2,5.00,0.00,22.3,21.1,00.0,31.5,23.9,05.8,0000.0,0005.58,0001.37,0000.84
2021-12-11 21:37:00,,0820.3,4.99,0.00,22.2,21.1,00.0,31.4,23.9,05.8,0000.0,0005.74,0001.41,0000.85
2021-12-11 21:38:00,,0820.3,5.00,0.00,22.2,21.1,00.0,31.4,23.8,05.9,0000.0,0005.82,0001.42,0000.86
2021-12-11 21:39:00,,0820.2,5.01,0.00,22.2,21.1,00.0,31.4,23.8,05.9,0000.0,0006.33,0001.44,0000.87
2021-12-11 21:40:00,,0820.2,4.99,0.00,22.2,21.1,00.0,31.4,23.8,05.9,0000.0,0006.52,0001.48,0000.88
2021-12-11 21:41:00,,0820.3,5.00,0.00,22.2,21.7,00.0,31.4,24.0,05.9,0000.0,0006.59,0001.51,0000.88
2021-12-11 21:42:00,,0820.5,4.99,0.00,22.4,22.6,00.0,31.4,24.3,05.8,0000.0,0005.76,0001.52,0000.88
2021-12-11 21:43:00,,0820.5,5.00,0.00,22.5,23.3,00.0,31.5,24.6,05.8,0000.0,0004.94,0001.58,0000.90
2021-12-11 21:44:00,,0820.3,5.01,0.00,22.6,23.1,00.0,31.5,24.6,05.8,0000.0,0006.52,0001.63,0000.93
2021-12-11 21:45:00,,0820.2,4.99,0.00,22.6,22.8,00.0,31.5,24.4,05.8,0000.0,0007.01,0001.69,0000.95
2021-12-11 21:46:00,,0820.3,5.02,0.00,22.6,22.5,00.0,31.5,24.3,05.8,0000.0,0007.75,0001.73,0000.94
2021-12-11 21:47:00,,0820.3,5.00,0.00,22.5,22.3,00.0,31.5,24.3,05.8,0000.0,0007.78,0001.74,0000.95
2021-12-11 21:48:00,,0820.2,5.01,0.00,22.5,22.1,00.0,31.5,24.1,05.8,0000.0,0007.75,0001.74,0000.96
2021-12-11 21:49:00,,0820.2,5.00,0.00,22.5,21.9,00.0,31.5,24.0,05.8,0000.0,0007.72,0001.74,0000.97
2021-12-11 21:50:00,,0820.2,5.00,0.00,22.4,21.8,00.0,31.5,24.1,05.9,0000.0,0007.51,0001.73,0000.97
2021-12-11 21:51:00,,0820.1,5.01,0.00,22.4,21.7,00.0,31.5,24.0,05.9,0000.0,0007.38,0001.73,0000.97
2021-12-11 21:52:00,,0820.3,4.98,0.00,22.4,21.7,00.0,31.5,24.0,05.9,0000.0,0007.68,0001.65,0000.96
2021-12-11 21:53:00,,0820.3,5.00,0.00,22.4,21.6,00.0,31.5,23.9,06.0,0000.0,0008.03,0001.60,0000.96
2021-12-11 21:54:00,,0820.2,5.00,0.00,22.3,21.6,00.0,31.4,23.8,06.0,0000.0,0007.95,0001.54,0000.96
2021-12-11 21:55:00,,0820.3,5.00,0.00,22.3,21.5,00.0,31.4,23.8,06.0,0000.0,0006.41,0001.50,0000.96
2021-12-11 21:56:00,,0820.3,5.01,0.00,22.3,21.5,00.0,31.4,23.8,06.0,0000.0,0005.71,0001.49,0000.95
2021-12-11 21:57:00,,0820.3,5.00,0.00,22.3,21.5,00.0,31.4,23.9,06.0,0000.0,0005.18,0001.45,0000.95
2021-12-11 21:58:00,,0820.3,5.00,0.00,22.3,21.4,00.0,31.4,23.9,06.1,0000.0,0004.20,0001.39,0000.95
2021-12-11 21:59:00,,0820.4,5.00,0.00,22.3,21.5,00.0,31.4,23.9,06.0,0000.0,0004.12,0001.37,0000.94
